| time (UTC) | temp F | wind direction | speed knots | gust knots | rain 1hr in | rain 24hr in | rain mn in | humidity % | barometer mb |
| 20260504081550 | 40 | 274 | 0.0 | 0.9 | 0.00 | 0.00 | 0.00 | 78 | 1016.4 |
| 20260504050106 | 40 | 274 | 0.0 | 0.9 | 0.00 | 0.00 | 0.00 | 73 | 1017.3 |
| 20260504044554 | 40 | 0 | 0.0 | 0.9 | 0.00 | 0.00 | 0.00 | 72 | 1017.2 |
| 20260504043057 | 40 | 0 | 0.0 | 0.0 | 0.00 | 0.00 | 0.00 | 71 | 1017.1 |
| 20260504041550 | 40 | 0 | 0.0 | 0.0 | 0.00 | 0.00 | 0.00 | 71 | 1017.0 |
| 20260504034556 | 41 | 0 | 0.0 | 0.0 | 0.00 | 0.00 | 0.00 | 69 | 1017.1 |
| 20260504033057 | 42 | 0 | 0.0 | 0.0 | 0.00 | 0.00 | 0.00 | 68 | 1016.9 |
| 20260504031555 | 42 | 0 | 0.0 | 0.0 | 0.00 | 0.00 | 0.00 | 67 | 1016.9 |
| 20260504030053 | 42 | 0 | 0.0 | 0.0 | 0.00 | 0.00 | 0.00 | 66 | 1017.0 |
| 20260504024554 | 43 | 0 | 0.0 | 0.9 | 0.00 | 0.00 | 0.00 | 65 | 1017.2 |
| 20260504023053 | 43 | 0 | 0.0 | 0.9 | 0.00 | 0.00 | 0.00 | 63 | 1017.3 |
| 20260504021556 | 43 | 0 | 0.0 | 0.9 | 0.00 | 0.00 | 0.00 | 62 | 1017.1 |
| 20260504020115 | 44 | 0 | 0.0 | 0.9 | 0.00 | 0.00 | 0.00 | 60 | 1017.0 |
| 20260504014601 | 45 | 0 | 0.0 | 0.0 | 0.00 | 0.00 | 0.00 | 57 | 1017.0 |
| 20260504013108 | 46 | 0 | 0.0 | 0.0 | 0.00 | 0.00 | 0.00 | 54 | 1016.7 |
| 20260504011549 | 47 | 0 | 0.0 | 0.9 | 0.00 | 0.00 | 0.00 | 53 | 1016.5 |
| 20260504010051 | 48 | 0 | 0.0 | 0.0 | 0.00 | 0.00 | 0.00 | 49 | 1016.5 |
| 20260504004552 | 49 | 0 | 0.0 | 0.9 | 0.00 | 0.00 | 0.00 | 47 | 1016.4 |
| 20260504003049 | 50 | 0 | 0.0 | 0.0 | 0.00 | 0.00 | 0.00 | 44 | 1016.2 |
| 20260504001549 | 52 | 0 | 0.0 | 0.9 | 0.00 | 0.00 | 0.00 | 41 | 1015.9 |
| 20260504000053 | 53 | 0 | 0.0 | 3.5 | 0.00 | 0.00 | 0.00 | 38 | 1015.9 |
| 20260503234548 | 54 | 286 | 0.0 | 2.6 | 0.00 | 0.00 | 0.00 | 37 | 1016.1 |
| 20260503233049 | 55 | 0 | 1.7 | 7.8 | 0.00 | 0.00 | 0.00 | 36 | 1016.0 |
| 20260503231556 | 55 | 0 | 0.0 | 7.0 | 0.00 | 0.00 | 0.00 | 36 | 1016.1 |
| 20260503230053 | 55 | 0 | 0.9 | 6.1 | 0.00 | 0.00 | 0.00 | 32 | 1016.1 |
| 20260503224559 | 56 | 264 | 0.9 | 4.3 | 0.00 | 0.00 | 0.00 | 33 | 1016.2 |
| 20260503223055 | 57 | 145 | 0.0 | 3.5 | 0.00 | 0.00 | 0.00 | 34 | 1016.2 |
| 20260503221601 | 58 | 312 | 0.9 | 6.1 | 0.00 | 0.00 | 0.00 | 31 | 1016.1 |
| 20260503220054 | 59 | 360 | 0.0 | 6.1 | 0.00 | 0.00 | 0.00 | 27 | 1016.2 |
| 20260503214553 | 59 | 69 | 0.9 | 4.3 | 0.00 | 0.00 | 0.00 | 29 | 1016.2 |
| 20260503213050 | 59 | 0 | 0.9 | 5.2 | 0.00 | 0.00 | 0.00 | 25 | 1016.4 |
| 20260503211550 | 58 | 104 | 0.9 | 5.2 | 0.00 | 0.00 | 0.00 | 29 | 1016.6 |
| 20260503210054 | 59 | 153 | 1.7 | 5.2 | 0.00 | 0.00 | 0.00 | 30 | 1016.6 |
| 20260503204616 | 58 | 316 | 1.7 | 6.1 | 0.00 | 0.00 | 0.00 | 28 | 1016.6 |
| 20260503203100 | 57 | 91 | 1.7 | 8.7 | 0.00 | 0.00 | 0.00 | 28 | 1016.8 |
| 20260503201554 | 57 | 105 | 0.9 | 4.3 | 0.00 | 0.00 | 0.00 | 28 | 1017.0 |
| 20260503200053 | 57 | 119 | 0.9 | 6.1 | 0.00 | 0.00 | 0.00 | 27 | 1017.2 |
| 20260503194600 | 57 | 0 | 0.9 | 8.7 | 0.00 | 0.00 | 0.00 | 27 | 1017.6 |
| 20260503193110 | 56 | 150 | 0.9 | 5.2 | 0.00 | 0.00 | 0.00 | 30 | 1017.5 |
| 20260503191610 | 56 | 23 | 2.6 | 7.0 | 0.00 | 0.00 | 0.00 | 32 | 1017.8 |
| 20260503190050 | 56 | 175 | 1.7 | 7.0 | 0.00 | 0.00 | 0.00 | 31 | 1018.2 |
| 20260503184551 | 55 | 0 | 2.6 | 6.1 | 0.00 | 0.00 | 0.00 | 32 | 1018.2 |
| 20260503183054 | 55 | 267 | 1.7 | 8.7 | 0.00 | 0.00 | 0.00 | 32 | 1018.5 |
| 20260503181553 | 54 | 167 | 1.7 | 7.0 | 0.00 | 0.00 | 0.00 | 33 | 1018.5 |
| 20260503180100 | 53 | 5 | 0.9 | 7.8 | 0.00 | 0.00 | 0.00 | 34 | 1018.9 |
| 20260503174554 | 53 | 201 | 1.7 | 6.1 | 0.00 | 0.00 | 0.00 | 36 | 1019.0 |
| 20260503173058 | 52 | 147 | 0.9 | 6.1 | 0.00 | 0.00 | 0.00 | 35 | 1019.2 |
| 20260503171553 | 51 | 192 | 0.9 | 5.2 | 0.00 | 0.00 | 0.00 | 38 | 1019.1 |